Location: Aragoneses
(41.0275°N, 4.3847°W)
Time: 02:46:30
(UTC+00:00)

Cosmos 2084 Rocket - Visible Passes

Search period start: 17 March 2026 00:00
Search period end: 27 March 2026 00:00
Orbit: 538 x 574 km, 62.8° (Epoch: 16 March)

Date Brightness Start Highest point End Pass type
(mag) Time Alt. Az. Time Alt. Az. Time Alt. Az.
17 Mar 3.5 05:24:33 10° SSW 05:28:35 75° ESE 05:32:41 10° NE visible
18 Mar 3.2 05:21:43 12° SW 05:25:28 79° NW 05:29:35 10° NNE visible
19 Mar 5.9 03:43:34 14° ESE 03:44:08 14° ESE 03:46:15 10° E visible
19 Mar 3.4 05:19:24 17° SW 05:22:22 56° NW 05:26:26 10° NNE visible
20 Mar 5.6 03:41:06 19° ESE 03:41:06 19° ESE 03:43:50 10° ENE visible
20 Mar 3.9 05:16:56 20° WSW 05:19:19 41° NW 05:23:14 10° NNE visible
21 Mar 5.3 03:38:31 25° E 03:38:31 25° E 03:41:06 10° ENE visible
21 Mar 4.3 05:14:20 21° W 05:16:16 31° NW 05:19:58 10° NNE visible
22 Mar 5.2 03:35:48 28° ENE 03:35:48 28° ENE 03:38:14 10° NE visible
22 Mar 4.7 05:11:37 19° WNW 05:13:15 24° NW 05:16:39 10° NNE visible
23 Mar 5.2 03:33:01 29° ENE 03:33:01 29° ENE 03:35:15 10° NE visible
23 Mar 5.0 05:08:50 16° WNW 05:10:16 19° NW 05:13:15 10° N visible
24 Mar 5.2 03:30:09 28° NE 03:30:09 28° NE 03:32:12 10° NE visible
24 Mar 5.3 05:05:57 13° WNW 05:07:18 15° NW 05:09:45 10° N visible
25 Mar 5.4 03:27:13 26° NNE 03:27:13 26° NNE 03:29:04 10° NNE visible
25 Mar 5.6 05:03:01 11° NW 05:04:23 12° NW 05:06:02 10° N visible
26 Mar 5.5 03:24:13 23° NNE 03:24:13 23° NNE 03:25:53 10° NNE visible
